Regional Weather Roundup
Issued by NWS Nashville, TN

Home | Current Version | Previous Version | Text Only | Print | Product List | Glossary On
Versions: 1 2 3 4 5 6 7 8 9 10 11 12 13 14 15 16 17 18 19 20 21 22 23 24 25 26 27 28 29 30 31 32 33 34 35 36 37 38 39 40 41 42 43 44 45 46 47 48 49 50
000
ASUS44 KOHX 230615
RWROHX
MIDDLE TENNESSEE HOURLY WEATHER ROUNDUP
NATIONAL WEATHER SERVICE NASHVILLE TN
100 AM CDT WED JUL 23 2014

NOTE: "FAIR" INDICATES FEW OR NO CLOUDS BELOW 12,000 FEET WITH
NO SIGNIFICANT WEATHER AND/OR OBSTRUCTIONS TO VISIBILITY.

* THESE REPORTS ARE NOT UNDER NWS QUALITY CONTROL AND MAY NOT
  REPORT WEATHER SUCH AS PRECIPITATION AND FOG.


TNZ005>011-023>034-057-059-062>066-078-080-230700
...NORTHERN MIDDLE TENNESSEE...

CITY           SKY/WX    TMP DP  RH WIND       PRES   REMARKS
CLARKSVILLE    CLEAR     78  73  84 SW5       30.06F
CROSSVILLE     PTCLDY    71  68  90 CALM      30.16F
DICKSON        CLEAR     75  72  88 CALM      30.09S
LEBANON        CLEAR     76  71  84 CALM      30.07S
LIVINGSTON     PTCLDY    75  69  81 SW6       30.12
NASHVILLE      PTCLDY    75  72  90 CALM      30.08S
PORTLAND       CLEAR     73  72  94 CALM      30.07F
SMYRNA         PTCLDY    76  73  90 CALM      30.08F
SPARTA         CLEAR     73  72  94 CALM      30.11S
$$
TNZ056-058-060-061-075>077-079-093>097-230700
...SOUTHERN MIDDLE TENNESSEE...

CITY           SKY/WX    TMP DP  RH WIND       PRES   REMARKS
COLUMBIA       PTCLDY    73  73 100 CALM      30.08S
FAYETTEVILLE   MOCLDY    70  70 100 CALM      30.11S
LEWISBURG      CLOUDY    75  72  91 CALM      30.09S
MCMINNVILLE    CLEAR     72  72 100 CALM      30.11F
MURFREESBORO   PTCLDY    77  71  81 CALM      30.08
SHELBYVILLE    CLOUDY    75  72  88 S3        30.11S
TULLAHOMA      CLEAR     72  70  94 CALM      30.12F
WINCHESTER     CLOUDY    70  70 100 CALM      30.12S
$$


...KEY TO REMARKS...
VSB - VISIBILITY IN MILES
WCI - WIND CHILL INDEX
HX  - HEAT INDEX



USA.gov is the U.S. government's official web portal to all federal, state and local government web resources and services.